Weather History for KOJC - February, 2014

Change the Weather History Date:

Thursday, February 27, 2014

  Actual Average Record
Temperature  
Mean Temperature 25 °F 39 °F  
Max Temperature 31 °F 49 °F 73 °F (1976)
Min Temperature 19 °F 29 °F 1 °F (1962)
Degree Days  
Heating Degree Days 40 26  
Month to date heating degree days 1063 819  
Since 1 July heating degree days 4450 3867  
Cooling Degree Days 0 0  
Month to date cooling degree days 0 0  
Year to date cooling degree days 0 0  
Moisture  
Dew Point 3 °F    
Average Humidity 47    
Maximum Humidity 73    
Minimum Humidity 21    
Precipitation  
Precipitation 0.00 in 0.06 in 1.21 in (2011)
Month to date precipitation 0.46 1.51  
Year to date precipitation 0.49 2.63  
Sea Level Pressure  
Sea Level Pressure 30.07 in    
Wind  
Wind Speed 9 mph (NE)    
Max Wind Speed 16 mph    
Max Gust Speed 21 mph    
Visibility 10 miles    
Events      
T = Trace of Precipitation, MM = Missing Value Source: NWS Daily Summary

Daily Weather History Graph

Daily Weather History Graph

Search for Another Location

Airport or City:

Trip Planner

Search our weather history database for the weather conditions in past years. The results will help you decide how hot, cold, wet, or windy it might be!

Date:

Astronomy

Feb. 27, 2014 Rise Set
Actual Time 6:54 AM CST 6:09 PM CST
Civil Twilight 6:27 AM CST 6:36 PM CST
Nautical Twilight 5:56 AM CST 7:07 PM CST
Astronomical Twilight 5:25 AM CST 7:38 PM CST
Moon 5:26 AM CST (2/27) 4:36 PM CST (2/27)
Length of Visible Light 12h 09m
Length of Day
11h 15m
Waning Crescent, 4% of the Moon is Illuminated
Feb 27
Waning Crescent
Mar 1
New
Mar 8
First Quarter
Mar 16
Full
Mar 23
Last Quarter

Hourly Weather History & Observations

Time (CST) Temp. Windchill Dew Point Humidity Pressure Visibility Wind Dir Wind Speed Gust Speed Precip Events Conditions
12:53 AM 23.0 °F 13.9 °F 12.0 °F 63% 30.03 in 10.0 mi West 8.1 mph - N/A   Clear
1:53 AM 21.0 °F 13.4 °F 12.9 °F 71% 30.04 in 10.0 mi West 5.8 mph - N/A   Clear
2:53 AM 21.0 °F 14.6 °F 12.9 °F 71% 30.04 in 10.0 mi WNW 4.6 mph - N/A   Clear
3:53 AM 19.9 °F 13.4 °F 12.9 °F 74% 30.06 in 10.0 mi WNW 4.6 mph - N/A   Clear
4:53 AM 21.0 °F 14.6 °F 14.0 °F 74% 30.07 in 10.0 mi NNW 4.6 mph - N/A   Clear
5:53 AM 21.0 °F 12.4 °F 12.9 °F 71% 30.10 in 10.0 mi North 6.9 mph - N/A   Clear
6:53 AM 19.9 °F 7.9 °F 5.0 °F 52% 30.12 in 10.0 mi North 11.5 mph - N/A   Clear
7:53 AM 21.0 °F 9.3 °F 5.0 °F 50% 30.16 in 10.0 mi North 11.5 mph - N/A   Clear
8:53 AM 19.9 °F 7.3 °F 1.9 °F 46% 30.18 in 10.0 mi North 12.7 mph - N/A   Clear
9:53 AM 23.0 °F 11.7 °F 6.1 °F 48% 30.17 in 10.0 mi NE 11.5 mph - N/A   Clear
10:53 AM 23.0 °F 11.7 °F 3.0 °F 42% 30.17 in 10.0 mi NNE 11.5 mph - N/A   Clear
11:53 AM 25.0 °F 16.3 °F -0.9 °F 33% 30.18 in 10.0 mi NNE 8.1 mph - N/A   Clear
12:53 PM 26.1 °F 17.6 °F -5.1 °F 26% 30.11 in 10.0 mi East 8.1 mph - N/A   Clear
1:53 PM 28.0 °F 20.8 °F -5.1 °F 24% 30.09 in 10.0 mi SE 6.9 mph - N/A   Clear
2:53 PM 30.0 °F 21.7 °F -5.1 °F 22% 30.05 in 10.0 mi East 9.2 mph - N/A   Clear
3:53 PM 30.9 °F 22.8 °F -4.0 °F 22% 30.04 in 10.0 mi SE 9.2 mph - N/A   Clear
4:53 PM 30.9 °F 22.2 °F 1.0 °F 28% 30.01 in 10.0 mi ESE 10.4 mph - N/A   Clear
5:53 PM 27.0 °F 16.7 °F -2.0 °F 29% 30.02 in 10.0 mi ESE 11.5 mph - N/A   Clear
6:53 PM 25.0 °F 17.1 °F -4.0 °F 28% 30.02 in 10.0 mi East 6.9 mph - N/A   Mostly Cloudy
7:53 PM 24.1 °F 14.4 °F -4.0 °F 29% 30.02 in 10.0 mi ENE 9.2 mph - N/A   Scattered Clouds
8:53 PM 23.0 °F 12.4 °F -2.0 °F 34% 30.01 in 10.0 mi ENE 10.4 mph - N/A   Mostly Cloudy
9:53 PM 24.1 °F 12.0 °F -0.9 °F 34% 29.99 in 10.0 mi East 13.8 mph - N/A   Mostly Cloudy
10:53 PM 24.1 °F 12.5 °F -0.9 °F 34% 29.96 in 10.0 mi East 12.7 mph - N/A   Overcast
11:53 PM 23.0 °F 12.4 °F -0.0 °F 37% 29.95 in 10.0 mi ESE 10.4 mph 20.7 mph N/A   Partly Cloudy